Meteo Giornale » Osservazioni meteo Stati Uniti (USA) » Fryeburg Eastern Slopes
ore: 20:54 - Osservazioni Meteo Fryeburg Eastern Slopes
Lat. 43° 59' N Lon. 70° 57' W Alt. 137 metri s.l.m.
14 °C
Sereno
Temp. 24 Ore
8 °C
27 °C
Nord
0 Km/h
Dew point 11 °C
Umidità 82 %
Visibilità 10 Km
Il sole sorge alle ore 06:06
Il sole tramonta alle ore 19:21
| Data e Ora | Cielo e Fenomeni | T °C | DP °C | Um. % | Pres. hPa | Vis. km | Vento km/h | |
|---|---|---|---|---|---|---|---|---|
| Oggi h: 20:54 | Sereno | 14 | 11 | 82 | 1018 | 10 | N 0 | |
| Oggi h: 19:54 | Sereno | 18 | 11 | 63 | 1017 | 10 | N 5.5 | |
| Oggi h: 18:54 | Sereno | 22 | 10 | 46 | 1017 | 10 | S/SO 7.4 | |
| Oggi h: 17:54 | Sereno | 25 | 9 | 36 | 1017 | 10 | N 5.5 | |
| Oggi h: 16:54 | Sereno | 27 | 10 | 34 | 1017 | 10 | N 0 | |
| Oggi h: 15:54 | Sereno | 27 | 6 | 26 | 1018 | 10 | N 7.4 | |
| Oggi h: 14:54 | Sereno | 27 | 6 | 26 | 1018 | 10 | N/NE 11.1 | |
| Oggi h: 13:54 | Sereno | 25 | 6 | 29 | 1019 | 10 | NE 7.4 | |
| Oggi h: 12:54 | Sereno | 24 | 6 | 31 | 1019 | 10 | N 5.5 | |
| Oggi h: 11:54 | Sereno | 23 | 8 | 38 | 1020 | 10 | E/NE 9.3 | |
| Oggi h: 10:54 | Sereno | 21 | 9 | 46 | 1021 | 10 | N 0 | |
| Oggi h: 09:54 | Sereno | 19 | 9 | 52 | 1021 | 10 | N 7.4 | |
| Oggi h: 08:54 | Sereno | 18 | 12 | 67 | 1020 | 10 | N 0 | |
| Oggi h: 07:54 | Sereno | 14 | 11 | 82 | 1020 | 10 | N 0 | |
| Oggi h: 06:54 | Sereno | 8 | 7 | 93 | 1020 | 10 | N 0 | |
| Oggi h: 05:54 | Sereno | 8 | 7 | 93 | 1020 | 10 | N 5.5 | |
| Oggi h: 04:54 | Sereno | 8 | 7 | 93 | 1019 | 10 | N 0 | |
| Oggi h: 03:54 | Sereno | 10 | 9 | 93 | 1019 | 10 | N 5.5 | |
| Oggi h: 02:54 | Sereno | 12 | 11 | 93 | 1018 | 10 | NO 11.1 | |
| Oggi h: 01:54 | Sereno | 11 | 9 | 87 | 1018 | 10 | NO 7.4 | |
| Oggi h: 00:54 | Sereno | 12 | 11 | 93 | 1018 | 14 | N 0 | |
| Ieri h: 23:54 | Poco Nuvoloso | 14 | 12 | 87 | 1018 | 10 | N 5.5 | |
| Ieri h: 22:54 | Pioggia | 16 | 13 | 82 | 1017 | 10 | N 5.5 | |
| Ieri h: 21:54 | Pioggia | 18 | 12 | 67 | 1018 | 10 | N 18.5 | |



